WE0DX-1 Weather Reports


Display with metric or nautical units.
time (UTC)temp
F
wind
direction
speed
MPH
gust
MPH
rain 1hr
in
rain 24hr
in
rain mn
in
humidity
%
barometer
mb
20260901225052 96 198 0.0 0.0 0.00 0.00 0.00 37 1013.1
20260901224549 96 103 0.0 0.0 0.00 0.00 0.00 37 1013.1
20260901224044 96 320 1.0 1.0 0.00 0.00 0.00 36 1013.1
20260901223540 97 122 1.0 2.0 0.00 0.00 0.00 35 1013.3
20260901223035 97 147 1.0 2.0 0.00 0.00 0.00 35 1013.0
20260901222531 97 202 2.0 3.0 0.00 0.00 0.00 35 1013.1
20260901222027 97 207 2.0 2.0 0.00 0.00 0.00 35 1012.9
20260901221523 97 132 0.0 2.0 0.00 0.00 0.00 36 1013.2
20260901221018 97 211 2.0 5.0 0.00 0.00 0.00 35 1013.1
20260901220517 97 93 0.0 3.0 0.00 0.00 0.00 35 1013.2
20260901220016 97 126 2.0 3.0 0.00 0.00 0.00 35 1013.2
20260901215514 97 129 2.0 5.0 0.00 0.00 0.00 34 1013.0
20260901215009 97 180 3.0 5.0 0.00 0.00 0.00 34 1013.2
20260901214507 97 211 2.0 3.0 0.00 0.00 0.00 34 1013.1
20260901214001 98 201 0.0 0.0 0.00 0.00 0.00 34 1013.2
20260901213450 98 204 2.0 6.0 0.00 0.00 0.00 35 1013.2
20260901212950 98 215 0.0 0.0 0.00 0.00 0.00 35 1013.5
20260901212445 98 152 0.0 0.0 0.00 0.00 0.00 35 1013.4
20260901211942 98 143 1.0 5.0 0.00 0.00 0.00 34 1013.2
20260901211437 98 156 3.0 5.0 0.00 0.00 0.00 35 1013.4
20260901210932 98 100 0.0 2.0 0.00 0.00 0.00 36 1013.3
20260901210423 98 234 3.0 5.0 0.00 0.00 0.00 36 1013.7
20260901205919 98 97 1.0 3.0 0.00 0.00 0.00 36 1013.7
20260901205413 98 101 1.0 2.0 0.00 0.00 0.00 36 1013.5
20260901204908 98 218 2.0 2.0 0.00 0.00 0.00 35 1013.8
20260901204405 98 217 1.0 3.0 0.00 0.00 0.00 36 1013.8
20260901203904 98 189 1.0 5.0 0.00 0.00 0.00 35 1013.8
20260901203358 98 135 1.0 2.0 0.00 0.00 0.00 34 1013.6
20260901202854 98 139 3.0 3.0 0.00 0.00 0.00 36 1013.8
20260901202348 98 233 3.0 5.0 0.00 0.00 0.00 35 1014.1
20260901201845 98 219 0.0 3.0 0.00 0.00 0.00 33 1014.1
20260901201344 98 257 3.0 7.0 0.00 0.00 0.00 35 1014.0
20260901200838 98 152 3.0 3.0 0.00 0.00 0.00 35 1014.1
20260901200334 99 141 0.0 3.0 0.00 0.00 0.00 35 1014.0
20260901195832 98 155 3.0 3.0 0.00 0.00 0.00 35 1014.2
20260901195330 98 81 1.0 5.0 0.00 0.00 0.00 34 1014.3
20260901194827 98 215 0.0 2.0 0.00 0.00 0.00 36 1014.4
20260901194321 98 152 1.0 3.0 0.00 0.00 0.00 35 1014.1
20260901193818 98 192 3.0 5.0 0.00 0.00 0.00 35 1014.4
20260901193316 98 125 3.0 7.0 0.00 0.00 0.00 36 1014.3
20260901192811 99 184 2.0 3.0 0.00 0.00 0.00 37 1014.7
20260901192307 99 111 6.0 8.0 0.00 0.00 0.00 37 1014.6
20260901191802 98 118 0.0 1.0 0.00 0.00 0.00 38 1014.6
20260901191258 98 141 0.0 0.0 0.00 0.00 0.00 40 1014.7
20260901190754 98 96 0.0 0.0 0.00 0.00 0.00 38 1014.4
20260901190248 98 109 5.0 7.0 0.00 0.00 0.00 36 1014.7
20260901185746 98 122 1.0 6.0 0.00 0.00 0.00 39 1014.7
20260901185245 98 178 2.0 2.0 0.00 0.00 0.00 38 1014.5
20260901184741 98 134 3.0 5.0 0.00 0.00 0.00 39 1014.7
20260901184236 98 162 2.0 7.0 0.00 0.00 0.00 39 1014.9
20260901183732 97 103 1.0 5.0 0.00 0.00 0.00 40 1014.8
20260901183231 97 183 2.0 2.0 0.00 0.00 0.00 40 1014.8
20260901182727 97 216 2.0 2.0 0.00 0.00 0.00 41 1014.9
20260901182226 96 217 1.0 2.0 0.00 0.00 0.00 41 1014.9
20260901181721 96 199 0.0 2.0 0.00 0.00 0.00 41 1015.1
20260901181215 96 212 4.0 6.0 0.00 0.00 0.00 40 1015.1
20260901180714 96 205 2.0 3.0 0.00 0.00 0.00 40 1015.2
20260901180209 96 57 1.0 2.0 0.00 0.00 0.00 41 1015.3
20260901175709 96 136 0.0 2.0 0.00 0.00 0.00 42 1015.5
20260901175209 96 155 2.0 3.0 0.00 0.00 0.00 40 1015.4
20260901174704 96 172 2.0 3.0 0.00 0.00 0.00 41 1015.4
20260901174200 95 123 0.0 2.0 0.00 0.00 0.00 42 1015.4
20260901173655 95 131 3.0 3.0 0.00 0.00 0.00 42 1015.5
20260901173150 95 205 2.0 3.0 0.00 0.00 0.00 43 1015.5
20260901172646 95 203 2.0 3.0 0.00 0.00 0.00 44 1015.7
20260901172143 95 160 0.0 2.0 0.00 0.00 0.00 44 1015.7
20260901171643 95 185 0.0 0.0 0.00 0.00 0.00 44 1015.5
20260901171142 95 171 0.0 0.0 0.00 0.00 0.00 45 1015.8
20260901170642 94 188 0.0 1.0 0.00 0.00 0.00 46 1015.8
20260901170137 94 241 1.0 2.0 0.00 0.00 0.00 45 1015.9
20260901165636 94 217 0.0 0.0 0.00 0.00 0.00 45 1015.8
20260901165131 94 128 1.0 2.0 0.00 0.00 0.00 44 1016.1
20260901164627 93 175 2.0 2.0 0.00 0.00 0.00 46 1015.9
20260901164122 93 109 1.0 2.0 0.00 0.00 0.00 45 1016.0
20260901163618 93 164 0.0 3.0 0.00 0.00 0.00 47 1016.3
20260901163116 93 108 0.0 0.0 0.00 0.00 0.00 47 1016.0
20260901162612 92 117 0.0 0.0 0.00 0.00 0.00 46 1016.3
20260901162105 92 209 0.0 0.0 0.00 0.00 0.00 46 1016.0
20260901161605 92 170 0.0 0.0 0.00 0.00 0.00 46 1015.8
20260901161104 91 115 0.0 6.0 0.00 0.00 0.00 47 1016.3
20260901160601 91 98 0.0 0.0 0.00 0.00 0.00 50 1016.4
20260901160050 91 244 2.0 3.0 0.00 0.00 0.00 48 1016.3
20260901155549 90 118 1.0 5.0 0.00 0.00 0.00 49 1016.0
20260901155045 90 141 0.0 0.0 0.00 0.00 0.00 48 1016.1
20260901154544 90 126 3.0 7.0 0.00 0.00 0.00 49 1016.0
20260901154039 90 145 0.0 0.0 0.00 0.00 0.00 50 1015.8
20260901153534 89 241 0.0 1.0 0.00 0.00 0.00 51 1015.9
20260901153029 89 230 1.0 1.0 0.00 0.00 0.00 51 1015.9
20260901152528 89 167 0.0 0.0 0.00 0.00 0.00 52 1016.0
20260901152027 89 104 0.0 0.0 0.00 0.00 0.00 51 1016.1
20260901151523 88 198 0.0 0.0 0.00 0.00 0.00 51 1015.8
20260901151022 88 115 0.0 1.0 0.00 0.00 0.00 53 1016.1
20260901150520 87 121 0.0 2.0 0.00 0.00 0.00 54 1016.3
20260901150019 86 159 3.0 7.0 0.00 0.00 0.00 55 1015.9
20260901145513 86 108 0.0 0.0 0.00 0.00 0.00 56 1015.9
20260901145012 86 93 0.0 0.0 0.00 0.00 0.00 56 1015.9
20260901144508 86 125 0.0 0.0 0.00 0.00 0.00 55 1016.1
20260901144003 86 135 0.0 0.0 0.00 0.00 0.00 55 1016.1
20260901143459 86 107 0.0 0.0 0.00 0.00 0.00 54 1016.0
20260901142955 86 141 0.0 0.0 0.00 0.00 0.00 55 1016.1
20260901142449 85 129 0.0 0.0 0.00 0.00 0.00 57 1015.9
20260901141944 84 144 0.0 0.0 0.00 0.00 0.00 57 1016.0
20260901141438 84 95 0.0 0.0 0.00 0.00 0.00 58 1016.0
20260901140933 84 122 0.0 0.0 0.00 0.00 0.00 56 1016.0
20260901140431 84 114 0.0 0.0 0.00 0.00 0.00 57 1016.1
20260901135926 84 81 0.0 5.0 0.00 0.00 0.00 58 1016.1
20260901135420 83 106 0.0 0.0 0.00 0.00 0.00 59 1016.1
20260901134917 82 103 3.0 5.0 0.00 0.00 0.00 59 1016.3
20260901134412 82 94 0.0 0.0 0.00 0.00 0.00 59 1015.9
20260901133912 82 124 0.0 0.0 0.00 0.00 0.00 61 1016.3
20260901133406 82 146 0.0 1.0 0.00 0.00 0.00 59 1016.3
20260901132905 81 123 0.0 0.0 0.00 0.00 0.00 62 1016.4
20260901132400 81 120 0.0 0.0 0.00 0.00 0.00 62 1016.4
20260901131858 81 87 0.0 0.0 0.00 0.00 0.00 60 1016.1
20260901131358 81 101 2.0 2.0 0.00 0.00 0.00 61 1016.1
20260901130853 80 120 0.0 0.0 0.00 0.00 0.00 62 1016.6
20260901130348 80 137 0.0 0.0 0.00 0.00 0.00 61 1016.0
20260901125846 80 128 2.0 8.0 0.00 0.00 0.00 61 1016.0
20260901125345 80 104 0.0 0.0 0.00 0.00 0.00 61 1016.3
20260901124840 80 125 0.0 0.0 0.00 0.00 0.00 61 1016.1
20260901124336 80 110 0.0 0.0 0.00 0.00 0.00 62 1016.3
20260901123835 80 97 0.0 0.0 0.00 0.00 0.00 62 1016.1
20260901123330 80 105 0.0 1.0 0.00 0.00 0.00 61 1015.9
20260901122829 80 110 0.0 0.0 0.00 0.00 0.00 61 1015.7
20260901122329 80 109 0.0 0.0 0.00 0.00 0.00 61 1015.9
20260901121828 80 99 0.0 0.0 0.00 0.00 0.00 61 1015.7
20260901121323 79 99 0.0 0.0 0.00 0.00 0.00 61 1015.8
20260901120818 79 106 0.0 0.0 0.00 0.00 0.00 62 1015.8
20260901120313 79 134 0.0 0.0 0.00 0.00 0.00 62 1015.6
20260901115809 79 108 0.0 0.0 0.00 0.00 0.00 62 1015.5
20260901115306 79 113 0.0 0.0 0.00 0.00 0.00 61 1015.8
20260901114801 79 108 0.0 0.0 0.00 0.00 0.00 62 1015.3
20260901114257 79 109 0.0 0.0 0.00 0.00 0.00 62 1015.6
20260901113755 79 110 0.0 0.0 0.00 0.00 0.00 61 1015.3
20260901113249 79 128 0.0 0.0 0.00 0.00 0.00 61 1015.4
20260901112749 79 137 0.0 0.0 0.00 0.00 0.00 61 1015.4
20260901112244 80 100 0.0 1.0 0.00 0.00 0.00 60 1015.3
20260901111739 80 110 0.0 2.0 0.00 0.00 0.00 60 1015.3
20260901111237 80 167 0.0 0.0 0.00 0.00 0.00 60 1015.2
20260901110732 80 171 0.0 0.0 0.00 0.00 0.00 59 1015.3
20260901110227 80 97 0.0 0.0 0.00 0.00 0.00 59 1015.2
20260901105724 80 152 0.0 0.0 0.00 0.00 0.00 59 1015.2
20260901105223 80 139 0.0 0.0 0.00 0.00 0.00 59 1015.1
20260901104720 80 92 0.0 0.0 0.00 0.00 0.00 59 1015.0
20260901104215 80 251 0.0 1.0 0.00 0.00 0.00 59 1015.0
20260901103714 80 104 0.0 0.0 0.00 0.00 0.00 59 1015.0
20260901103209 80 106 0.0 0.0 0.00 0.00 0.00 59 1014.9
20260901102704 80 107 0.0 0.0 0.00 0.00 0.00 59 1015.0
20260901102203 80 103 0.0 0.0 0.00 0.00 0.00 59 1014.7
20260901101659 80 99 0.0 0.0 0.00 0.00 0.00 59 1014.9
20260901101159 80 105 0.0 0.0 0.00 0.00 0.00 59 1014.8
20260901100653 80 108 0.0 0.0 0.00 0.00 0.00 59 1014.7
20260901100148 80 101 0.0 0.0 0.00 0.00 0.00 59 1015.1
20260901095646 80 94 0.0 0.0 0.00 0.00 0.00 59 1014.9
20260901095144 80 106 0.0 0.0 0.00 0.00 0.00 59 1014.9
20260901094638 80 159 0.0 0.0 0.00 0.00 0.00 58 1014.7
20260901094133 80 90 0.0 0.0 0.00 0.00 0.00 59 1014.8
20260901093628 80 117 0.0 0.0 0.00 0.00 0.00 59 1014.6
20260901093127 79 122 0.0 0.0 0.00 0.00 0.00 60 1014.7
20260901092623 80 154 0.0 0.0 0.00 0.00 0.00 60 1014.7
20260901092119 80 104 0.0 0.0 0.00 0.00 0.00 58 1014.3
20260901091614 81 103 0.0 0.0 0.00 0.00 0.00 57 1014.4
20260901091110 81 120 0.0 0.0 0.00 0.00 0.00 56 1014.8
20260901090609 82 111 0.0 0.0 0.00 0.00 0.00 56 1014.3
20260901090105 82 112 0.0 0.0 0.00 0.00 0.00 55 1014.5
20260901085601 82 109 0.0 0.0 0.00 0.00 0.00 55 1014.3
20260901085056 82 115 0.0 1.0 0.00 0.00 0.00 54 1014.2
20260901084552 82 112 0.0 0.0 0.00 0.00 0.00 55 1014.2
20260901084048 82 118 0.0 0.0 0.00 0.00 0.00 54 1014.3
20260901083547 82 105 0.0 0.0 0.00 0.00 0.00 54 1014.1
20260901083045 82 122 0.0 0.0 0.00 0.00 0.00 54 1014.1
20260901082541 82 108 0.0 0.0 0.00 0.00 0.00 54 1014.2
20260901082036 82 99 0.0 0.0 0.00 0.00 0.00 53 1014.1
20260901081531 82 113 0.0 0.0 0.00 0.00 0.00 54 1014.1
20260901081026 82 125 0.0 0.0 0.00 0.00 0.00 54 1014.2
20260901080525 82 108 0.0 0.0 0.00 0.00 0.00 53 1014.0
20260901080020 82 108 0.0 0.0 0.00 0.00 0.00 53 1014.2
20260901075516 82 98 0.0 0.0 0.00 0.00 0.00 54 1014.2
20260901075015 82 124 0.0 0.0 0.00 0.00 0.00 53 1014.1
20260901074514 82 98 0.0 0.0 0.00 0.00 0.00 54 1014.3
20260901074009 82 101 0.0 0.0 0.00 0.00 0.00 53 1014.3
20260901073506 82 101 0.0 0.0 0.00 0.00 0.00 54 1014.4
20260901073001 82 101 0.0 0.0 0.00 0.00 0.00 54 1014.3
20260901072456 82 101 0.0 0.0 0.00 0.00 0.00 54 1014.3
20260901071950 82 95 0.0 0.0 0.00 0.00 0.00 54 1014.2
20260901071449 82 94 0.0 0.0 0.00 0.00 0.00 53 1014.4
20260901070944 82 94 0.0 0.0 0.00 0.00 0.00 53 1014.4
20260901070439 82 94 0.0 0.0 0.00 0.00 0.00 53 1014.5
20260901065937 82 102 0.0 0.0 0.00 0.00 0.00 53 1014.4
20260901065434 82 103 0.0 0.0 0.00 0.00 0.00 53 1014.5
20260901064928 82 91 0.0 0.0 0.00 0.00 0.00 54 1014.5
20260901064425 82 99 0.0 0.0 0.00 0.00 0.00 53 1014.4
20260901063922 82 100 0.0 0.0 0.00 0.00 0.00 53 1014.6
20260901063418 82 88 0.0 0.0 0.00 0.00 0.00 53 1014.5
20260901062914 82 94 0.0 0.0 0.00 0.00 0.00 53 1014.5
20260901062410 83 94 0.0 0.0 0.00 0.00 0.00 53 1014.7
20260901061905 82 100 0.0 0.0 0.00 0.00 0.00 53 1014.5
20260901061401 82 99 0.0 0.0 0.00 0.00 0.00 53 1014.7
20260901060856 82 99 0.0 0.0 0.00 0.00 0.00 53 1014.6
20260901060352 83 99 0.0 0.0 0.00 0.00 0.00 53 1014.6
20260901055851 83 94 0.0 0.0 0.00 0.00 0.00 52 1014.6
20260901055347 84 111 0.0 0.0 0.00 0.00 0.00 51 1014.7
20260901054844 83 111 0.0 1.0 0.00 0.00 0.00 51 1014.7
20260901054341 83 101 0.0 0.0 0.00 0.00 0.00 52 1014.7
20260901053836 84 101 0.0 0.0 0.00 0.00 0.00 52 1014.8
20260901053331 84 100 0.0 0.0 0.00 0.00 0.00 51 1014.7
20260901052827 84 98 0.0 0.0 0.00 0.00 0.00 51 1014.5
20260901052322 84 98 0.0 0.0 0.00 0.00 0.00 51 1014.6
20260901051821 84 100 0.0 0.0 0.00 0.00 0.00 51 1014.7
20260901051316 84 97 0.0 0.0 0.00 0.00 0.00 51 1014.5
20260901050811 84 116 0.0 0.0 0.00 0.00 0.00 51 1014.6
20260901050306 84 119 0.0 0.0 0.00 0.00 0.00 51 1014.5
20260901045756 84 127 0.0 0.0 0.00 0.00 0.00 51 1014.4
20260901045255 85 106 0.0 0.0 0.00 0.00 0.00 51 1014.7
20260901044746 85 100 0.0 0.0 0.00 0.00 0.00 51 1014.4
20260901044242 85 102 0.0 0.0 0.00 0.00 0.00 50 1014.5
20260901043737 85 98 0.0 0.0 0.00 0.00 0.00 50 1014.5
20260901043233 85 136 0.0 0.0 0.00 0.00 0.00 50 1014.5
20260901042732 86 99 0.0 0.0 0.00 0.00 0.00 50 1014.1
20260901042227 86 95 0.0 0.0 0.00 0.00 0.00 50 1014.3
20260901041723 86 158 0.0 0.0 0.00 0.00 0.00 50 1014.1
20260901041222 86 125 0.0 0.0 0.00 0.00 0.00 49 1014.2
20260901040718 86 111 0.0 0.0 0.00 0.00 0.00 50 1014.3
20260901040216 86 120 0.0 0.0 0.00 0.00 0.00 49 1014.2
20260901035715 87 113 0.0 0.0 0.00 0.00 0.00 50 1014.3
20260901035214 87 113 0.0 0.0 0.00 0.00 0.00 49 1014.1
20260901034708 87 153 0.0 0.0 0.00 0.00 0.00 50 1014.0
20260901034203 87 99 0.0 0.0 0.00 0.00 0.00 49 1014.2
20260901033702 87 139 0.0 0.0 0.00 0.00 0.00 49 1013.9
20260901033202 87 171 0.0 0.0 0.00 0.00 0.00 51 1014.1
20260901032700 86 123 0.0 0.0 0.00 0.00 0.00 52 1013.8
20260901032155 87 112 0.0 0.0 0.00 0.00 0.00 52 1013.7
20260901031650 87 130 0.0 0.0 0.00 0.00 0.00 52 1013.9
20260901031147 87 93 0.0 0.0 0.00 0.00 0.00 52 1014.0
20260901030646 87 102 0.0 0.0 0.00 0.00 0.00 52 1013.8
20260901030141 88 179 0.0 0.0 0.00 0.00 0.00 51 1013.7
20260901025635 88 97 0.0 0.0 0.00 0.00 0.00 51 1013.8
20260901025130 88 119 0.0 0.0 0.00 0.00 0.00 51 1013.9
20260901024624 89 128 0.0 0.0 0.00 0.00 0.00 51 1013.9
20260901024123 89 108 0.0 0.0 0.00 0.00 0.00 51 1013.5
20260901023622 89 164 0.0 0.0 0.00 0.00 0.00 51 1013.8
20260901023117 89 128 0.0 0.0 0.00 0.00 0.00 51 1013.7
20260901022612 89 119 0.0 0.0 0.00 0.00 0.00 51 1013.5
20260901022108 89 106 0.0 0.0 0.00 0.00 0.00 51 1013.5
20260901021603 89 100 0.0 0.0 0.00 0.00 0.00 50 1013.5
20260901021058 89 166 0.0 0.0 0.00 0.00 0.00 50 1013.5
20260901020554 89 137 0.0 0.0 0.00 0.00 0.00 50 1013.5
20260901020049 90 101 0.0 0.0 0.00 0.00 0.00 50 1013.5
20260901015544 90 96 0.0 0.0 0.00 0.00 0.00 49 1013.4
20260901015039 90 107 0.0 0.0 0.00 0.00 0.00 50 1013.4
20260901014534 90 99 0.0 0.0 0.00 0.00 0.00 50 1013.2
20260901014030 90 92 0.0 0.0 0.00 0.00 0.00 50 1013.1
20260901013526 90 144 0.0 0.0 0.00 0.00 0.00 50 1013.2
20260901013022 90 99 0.0 0.0 0.00 0.00 0.00 49 1013.2
20260901012521 89 102 0.0 0.0 0.00 0.00 0.00 50 1013.1
20260901012016 89 102 0.0 0.0 0.00 0.00 0.00 51 1013.2
20260901011513 89 103 0.0 0.0 0.00 0.00 0.00 50 1013.2
20260901011010 90 103 0.0 0.0 0.00 0.00 0.00 49 1012.9
20260901010506 89 103 0.0 0.0 0.00 0.00 0.00 49 1013.1
20260901010005 90 103 0.0 0.0 0.00 0.00 0.00 49 1013.1
20260901005500 90 103 0.0 0.0 0.00 0.00 0.00 48 1013.2
20260901004955 90 103 0.0 0.0 0.00 0.00 0.00 49 1013.0
20260901004454 91 103 0.0 0.0 0.00 0.00 0.00 49 1012.8
20260901003949 91 103 0.0 0.0 0.00 0.00 0.00 49 1013.0
20260901003444 91 103 0.0 0.0 0.00 0.00 0.00 49 1012.9
20260901002942 92 103 0.0 0.0 0.00 0.00 0.00 48 1013.0
20260901002436 92 103 0.0 0.0 0.00 0.00 0.00 48 1012.8
20260901001931 93 103 0.0 0.0 0.00 0.00 0.00 47 1013.1
20260901001426 93 103 0.0 0.0 0.00 0.00 0.00 47 1013.0
20260901000921 94 103 0.0 0.0 0.00 0.00 0.00 46 1013.2
20260901000416 94 103 0.0 0.0 0.00 0.00 0.00 46 1013.1
20260831235915 94 103 0.0 0.0 0.00 0.00 0.00 46 1013.0
20260831235411 95 100 0.0 0.0 0.00 0.00 0.00 45 1013.0
20260831234906 95 102 0.0 0.0 0.00 0.00 0.00 45 1013.1
20260831234400 95 92 0.0 0.0 0.00 0.00 0.00 46 1012.8
20260831233856 95 106 0.0 0.0 0.00 0.00 0.00 45 1012.8
20260831233351 96 114 0.0 2.0 0.00 0.00 0.00 44 1013.0
20260831232846 96 104 0.0 0.0 0.00 0.00 0.00 44 1012.9
20260831232342 96 119 0.0 0.0 0.00 0.00 0.00 43 1013.0
20260831231838 96 109 0.0 0.0 0.00 0.00 0.00 44 1013.1
20260831231334 97 114 0.0 0.0 0.00 0.00 0.00 43 1012.9
20260831230829 97 106 0.0 0.0 0.00 0.00 0.00 43 1012.8
20260831230319 97 167 0.0 0.0 0.00 0.00 0.00 42 1012.9
20260831225818 97 105 0.0 0.0 0.00 0.00 0.00 43 1013.0
20260831225313 97 141 0.0 0.0 0.00 0.00 0.00 43 1013.1